Find Starlink 6048

NORAD ID: 56459 Int'l Des: 2023-064 Owner: SPXS Country: US Constellation: starlink operational
LEOCIRCULAR

实时位置

正在加载3D地球...

关于 Starlink 6048

正在加载描述...

即将过境

Passes for default location (London). Set your location on the main map for personalized predictions.

高度历史

Loading altitude history...

两行轨道根数

1 56459U 23064M 26126.06544738 -.00001927 00000-0 -15370-3 0 9998
2 56459 69.9992 359.6591 0003159 268.1310 91.9488 14.98345397163835
Epoch: May 6, 2026 • Age: 10 hours

当前状态

高度 585.1 km
速度 7.57 km/s
星下点 66.88°N, 81.72°E
发射日期 May 10, 2023
运行时间 2.9 years
类型 internet

技术详情

分类 Payload
质量 305.00 kg
干质量 290.00 kg
总质量 305.00 kg
长度 0.20 m
直径 2.80 m
跨度 9.00 m
形状 Box + pan
制造商 SPXS
平台类型 Starlink
阶段状态 In Orbit
所有者/国家 SPXS/US

Most Searched